Content
SEND FEEDBACK

Daily
Averages
Monthly
Summary
Canada

QUEBEC CITY, QUEBEC


Home > North America > Canada > Quebec
Elevation: 239 feet     Latitude: 46 48N     Longitude: 071 23W

WEATHER
 
SELECT A DAY
Number of Records: 192,085;   Date Range: 6/30/96 - 7/28/14
 
SHARE

PRINT THIS DATA

[ ← Previous Day ]
WEATHER ALMANAC - FEBRUARY 20, 2013
[ Next Day → ]
[ °C ]   °F
Weather ElementAverageHighLow
Temperature27.7 °F29 °F (1:00 am)23 °F (11:28 pm)
Dewpoint21.8 °F29 °F (4:00 am) (7:00 pm)
Humidity89.8 %99 % (7:00 am)86 % (1:00 am)
Wind Speed10.4 mph19.6 mph (11:28 pm)
Wind Gust25.3 mph (11:28 pm)
Weather ElementAverage
Visibility2.6 mi
Wind DirectionSSW (189.4 °)

Weather ElementTotal
Precipitation---
Heating Degree Days39 (Base 65)
Averaged from 36 records on February 20, 2013
WEATHER CONDITIONS BREAKOUT
WIND DIRECTION BREAKOUT
WEATHER BY HOUR - FEBRUARY 20, 2013
[ °C ]   °F
Local TimeTemperatureDewpointHumidityBarometerVisibilityWind DirectionWind SpeedGust SpeedPrecipitationEventsConditions
1:00 AM29.0 °F28.0 °F95 %29.60 inEast (80°)8.1 mph
1:00 AM28.4 °F24.8 °F86 %29.61 in3.0 miENE (70°)10.4 mph19.6 mphSnowLight Snow
1:31 AM28.4 °F0.0 °F2.0 miEast (90°)10.4 mphSnowLight Snow
2:00 AM28.4 °F26.6 °F93 %29.57 in1.0 miENE (70°)18.4 mphSnowLight Snow
3:00 AM28.4 °F26.6 °F93 %29.54 in1.2 miEast (80°)10.4 mphSnowLight Snow
4:00 AM28.4 °F26.6 °F93 %29.52 in1.2 miEast (90°)8.1 mphSnowLight Snow
4:00 AM29.0 °F29.0 °F98 %29.52 inEast (80°)6.9 mph
5:00 AM28.4 °F26.6 °F93 %29.51 in1.2 miSouth (170°)3.5 mphSnowLight Snow
6:00 AM28.4 °F24.8 °F86 %29.49 in1.2 miSouth (180°)5.8 mphSnowLight Snow
7:00 AM28.4 °F24.8 °F86 %29.49 in1.0 miSouth (180°)8.1 mphSnowLight Snow
7:00 AM28.0 °F28.0 °F99 %29.49 inSouth (190°)8.1 mph
7:21 AM28.4 °F0.0 °F1.5 miSouth (190°)6.9 mphSnowLight Snow
8:00 AM28.4 °F24.8 °F86 %29.48 in1.2 miSouth (180°)6.9 mphSnowLight Snow
9:00 AM28.4 °F24.8 °F86 %29.46 in1.2 miSSW (210°)6.9 mphSnowLight Snow
10:00 AM28.0 °F28.0 °F98 %29.44 inWSW (240°)5.8 mph
10:00 AM28.4 °F24.8 °F86 %29.44 in1.2 miSW (220°)9.2 mphSnowLight Snow
11:00 AM28.4 °F24.8 °F86 %29.44 in1.2 miSW (230°)9.2 mphSnowLight Snow
12:00 PM28.4 °F24.8 °F86 %29.42 in1.2 miSW (220°)16.1 mphSnowLight Snow
1:00 PM28.4 °F24.8 °F86 %29.42 in1.0 miSW (230°)12.7 mphSnowLight Snow
1:00 PM28.0 °F28.0 °F98 %29.41 inWSW (240°)8.1 mph
2:00 PM28.4 °F24.8 °F86 %29.42 in1.5 miSW (220°)11.5 mph17.3 mphSnowLight Snow
3:00 PM28.4 °F24.8 °F86 %29.42 in2.0 miSW (220°)10.4 mphSnowLight Snow
4:00 PM28.0 °F28.0 °F98 %29.42 inSW (230°)5.8 mph
4:00 PM28.4 °F24.8 °F86 %29.43 in1.5 miSW (220°)11.5 mphSnowLight Snow
5:00 PM28.4 °F24.8 °F86 %29.44 in1.0 miSSW (210°)15.0 mphSnowLight Snow
5:44 PM26.6 °F0.0 °F2.0 miSW (230°)15.0 mph20.7 mphSnowLight Snow
6:00 PM26.6 °F23.0 °F86 %29.47 in2.5 miSW (220°)13.8 mphSnowLight Snow
6:35 PM26.6 °F0.0 °F5.0 miSW (220°)12.7 mph20.7 mphSnowLight Snow
7:00 PM26.0 °F25.0 °F96 %29.48 inWSW (240°)9.2 mph
7:00 PM26.6 °F23.0 °F86 %29.48 in4.0 miSW (230°)12.7 mphSnowLight Snow
8:00 PM26.6 °F23.0 °F86 %29.49 in4.0 miSW (220°)13.8 mphSnowLight Snow
9:00 PM26.6 °F23.0 °F86 %29.50 in6.0 miSW (220°)9.2 mphSnowLight Snow Grains
10:00 PM27.0 °F26.0 °F97 %29.51 inSW (230°)5.8 mph
10:00 PM26.6 °F23.0 °F86 %29.51 in10.0 miSW (220°)11.5 mphSnowLight Snow
11:00 PM24.8 °F21.2 °F86 %29.53 in10.0 miSW (220°)17.3 mph23.0 mphSnowLight Snow
11:28 PM23.0 °F0.0 °F3.0 miSW (230°)19.6 mph25.3 mphSnowLight Snow
Hourly data recorded from CYQB, located miles away from Quebec City, Quebec







STORIES FROM OUR PARTNERS